When you browse on this site, cookies collect data to enhance your experience and personalize the content and advertising you see.
Visit our Privacy Policy to learn more. By continuing to use the site, you agree to this use of cookies and data.
  • In Lithuania
  • List of Countries
  • For 7 days
  • Water Temperature
  • Weather Map
  • Weather Widgets
  • user-avatar
    Login

    Hourly Weather Eisenstadt

    Today, 17 October, Thursday

    Time Temperature Precipitation Wind Pressure Humidity
    00:00 +9°C° 0 mm 2 mps 724 mmHg 89%
    01:00 +9°C° 0 mm 2 mps 724 mmHg 88%
    02:00 +9°C° 0 mm 2 mps 724 mmHg 89%
    03:00 +9°C° 0 mm 2 mps 723 mmHg 89%
    04:00 +9°C° 0 mm 2 mps 723 mmHg 90%
    05:00 +9°C° 0 mm 2 mps 723 mmHg 90%
    06:00 +9°C° 0 mm 2 mps 723 mmHg 90%
    07:00 +10°C° 0 mm 1 mps 723 mmHg 90%
    08:00 +12°C° 0 mm 2 mps 724 mmHg 83%
    09:00 +14°C° 0 mm 2 mps 724 mmHg 76%
    10:00 +16°C° 0 mm 2 mps 724 mmHg 69%
    11:00 +17°C° 0 mm 2 mps 724 mmHg 66%
    12:00 +18°C° 0 mm 2 mps 724 mmHg 62%
    13:00 +18°C° 0 mm 3 mps 723 mmHg 59%
    14:00 +18°C° 0 mm 2 mps 723 mmHg 62%
    15:00 +17°C° 0 mm 2 mps 723 mmHg 65%
    16:00 +17°C° 0 mm 2 mps 723 mmHg 68%
    17:00 +15°C° 0 mm 2 mps 723 mmHg 74%
    18:00 +14°C° 0 mm 1 mps 723 mmHg 79%
    19:00 +13°C° 0 mm 1 mps 723 mmHg 85%
    20:00 +12°C° 0 mm 1 mps 723 mmHg 86%
    21:00 +12°C° 0 mm 1 mps 723 mmHg 88%
    22:00 +11°C° 0 mm 1 mps 723 mmHg 89%
    23:00 +11°C° 0 mm 1 mps 723 mmHg 89%

    Tomorrow, 18 October, Friday

    Time Temperature Precipitation Wind Pressure Humidity
    00:00 +11°C° 0 mm 1 mps 723 mmHg 90%
    01:00 +11°C° 0 mm 1 mps 722 mmHg 90%
    02:00 +10°C° 0 mm 1 mps 722 mmHg 91%
    03:00 +10°C° 0 mm 1 mps 722 mmHg 91%
    04:00 +10°C° 0 mm 1 mps 722 mmHg 91%
    05:00 +10°C° 0 mm 1 mps 722 mmHg 90%
    06:00 +10°C° 0 mm 1 mps 722 mmHg 90%
    07:00 +9°C° 0 mm 0 mps 722 mmHg 89%
    08:00 +12°C° 0 mm 1 mps 722 mmHg 82%
    09:00 +14°C° 0 mm 1 mps 722 mmHg 74%
    10:00 +16°C° 0 mm 1 mps 722 mmHg 67%
    11:00 +18°C° 0 mm 1 mps 722 mmHg 64%
    12:00 +19°C° 0 mm 1 mps 722 mmHg 61%
    13:00 +19°C° 0 mm 1 mps 721 mmHg 58%
    14:00 +19°C° 0 mm 1 mps 721 mmHg 61%
    15:00 +18°C° 0 mm 1 mps 721 mmHg 64%
    16:00 +18°C° 0 mm 1 mps 721 mmHg 67%
    17:00 +16°C° 0 mm 1 mps 721 mmHg 72%
    18:00 +14°C° 0 mm 1 mps 721 mmHg 77%
    19:00 +13°C° 0 mm 1 mps 721 mmHg 82%
    20:00 +13°C° 0 mm 1 mps 721 mmHg 83%
    21:00 +12°C° 0 mm 1 mps 721 mmHg 84%
    22:00 +12°C° 0 mm 1 mps 721 mmHg 85%
    23:00 +12°C° 0 mm 1 mps 721 mmHg 84%

    Day after tomorrow, 19 October, Saturday

    Time Temperature Precipitation Wind Pressure Humidity
    00:00 +12°C° 0 mm 1 mps 721 mmHg 84%
    01:00 +12°C° 0 mm 1 mps 721 mmHg 84%
    02:00 +12°C° 0 mm 1 mps 721 mmHg 85%
    03:00 +10°C° 0 mm 0 mps 721 mmHg 86%
    04:00 +10°C° 0 mm 0 mps 721 mmHg 87%
    05:00 +10°C° 0 mm 0 mps 721 mmHg 86%
    06:00 +10°C° 0 mm 0 mps 721 mmHg 86%
    07:00 +10°C° 0 mm 0 mps 721 mmHg 86%
    08:00 +13°C° 0 mm 1 mps 721 mmHg 80%
    09:00 +15°C° 0 mm 1 mps 721 mmHg 73%
    10:00 +16°C° 0 mm 2 mps 721 mmHg 67%
    11:00 +17°C° 0 mm 2 mps 721 mmHg 64%
    12:00 +18°C° 0 mm 3 mps 721 mmHg 60%
    13:00 +19°C° 0 mm 3 mps 720 mmHg 57%
    14:00 +19°C° 0 mm 3 mps 720 mmHg 60%
    15:00 +19°C° 0 mm 3 mps 720 mmHg 62%
    16:00 +18°C° 0 mm 3 mps 720 mmHg 65%
    17:00 +17°C° 0 mm 3 mps 720 mmHg 71%
    18:00 +14°C° 0 mm 3 mps 720 mmHg 76%
    19:00 +14°C° 0 mm 2 mps 720 mmHg 82%
    20:00 +13°C° 0 mm 3 mps 720 mmHg 83%
    21:00 +12°C° 0 mm 3 mps 720 mmHg 84%
    22:00 +12°C° 0 mm 3 mps 720 mmHg 85%
    23:00 +12°C° 0 mm 3 mps 719 mmHg 85%

    20 October, Sunday

    Time Temperature Precipitation Wind Pressure Humidity
    00:00 +12°C° 0 mm 4 mps 719 mmHg 84%
    01:00 +12°C° 0 mm 4 mps 719 mmHg 84%
    02:00 +12°C° 0 mm 4 mps 719 mmHg 84%
    03:00 +11°C° 0 mm 4 mps 719 mmHg 85%
    04:00 +11°C° 0 mm 4 mps 719 mmHg 85%
    05:00 +11°C° 0 mm 4 mps 719 mmHg 86%
    06:00 +11°C° 0 mm 3 mps 719 mmHg 87%
    07:00 +10°C° 0 mm 2 mps 720 mmHg 87%
    08:00 +14°C° 0 mm 2 mps 720 mmHg 79%
    09:00 +16°C° 0 mm 2 mps 721 mmHg 71%
    10:00 +18°C° 0 mm 2 mps 721 mmHg 62%
    11:00 +19°C° 0 mm 2 mps 721 mmHg 60%
    12:00 +20°C° 0 mm 2 mps 722 mmHg 57%
    13:00 +21°C° 0 mm 3 mps 722 mmHg 54%
    14:00 +20°C° 0 mm 2 mps 722 mmHg 58%
    15:00 +20°C° 0 mm 2 mps 722 mmHg 61%
    16:00 +19°C° 0 mm 2 mps 721 mmHg 65%
    17:00 +18°C° 0 mm 2 mps 722 mmHg 71%
    18:00 +16°C° 0 mm 1 mps 722 mmHg 76%
    19:00 +15°C° 0 mm 1 mps 722 mmHg 82%
    20:00 +14°C° 0 mm 1 mps 723 mmHg 83%
    21:00 +14°C° 0 mm 1 mps 723 mmHg 84%
    22:00 +13°C° 0 mm 1 mps 723 mmHg 84%
    23:00 +13°C° 0 mm 1 mps 723 mmHg 84%

    21 October, Monday

    Time Temperature Precipitation Wind Pressure Humidity
    00:00 +13°C° 0 mm 1 mps 723 mmHg 85%
    01:00 +13°C° 0 mm 1 mps 724 mmHg 85%
    02:00 +12°C° 0 mm 1 mps 724 mmHg 85%
    03:00 +12°C° 0 mm 1 mps 724 mmHg 86%
    04:00 +12°C° 0 mm 1 mps 724 mmHg 86%
    05:00 +12°C° 0 mm 1 mps 724 mmHg 87%
    06:00 +12°C° 0 mm 1 mps 724 mmHg 87%
    07:00 +12°C° 0 mm 1 mps 725 mmHg 87%
    08:00 +14°C° 0 mm 1 mps 725 mmHg 80%
    09:00 +15°C° 0 mm 1 mps 725 mmHg 74%
    10:00 +18°C° 0 mm 1 mps 726 mmHg 67%
    11:00 +19°C° 0 mm 1 mps 726 mmHg 65%
    12:00 +20°C° 0 mm 1 mps 726 mmHg 63%
    13:00 +19°C° 0 mm 2 mps 726 mmHg 61%
    14:00 +20°C° 0 mm 1 mps 725 mmHg 64%
    15:00 +19°C° 0 mm 1 mps 725 mmHg 68%
    16:00 +19°C° 0 mm 1 mps 725 mmHg 71%
    17:00 +18°C° 0 mm 1 mps 725 mmHg 75%
    18:00 +16°C° 0 mm 1 mps 725 mmHg 78%
    19:00 +15°C° 0 mm 1 mps 725 mmHg 82%
    20:00 +15°C° 0 mm 1 mps 725 mmHg 82%
    21:00 +15°C° 0 mm 1 mps 725 mmHg 83%
    22:00 +15°C° 0 mm 1 mps 726 mmHg 83%
    23:00 +14°C° 0 mm 1 mps 726 mmHg 85%

    22 October, Tuesday

    Time Temperature Precipitation Wind Pressure Humidity
    00:00 +14°C° 0 mm 1 mps 726 mmHg 87%
    01:00 +13°C° 0 mm 1 mps 726 mmHg 89%
    02:00 +13°C° 0 mm 1 mps 725 mmHg 89%
    03:00 +13°C° 0 mm 1 mps 725 mmHg 90%
    04:00 +13°C° 0 mm 1 mps 725 mmHg 90%
    05:00 +13°C° 0 mm 1 mps 725 mmHg 90%
    06:00 +13°C° 0 mm 1 mps 725 mmHg 90%
    07:00 +13°C° 0 mm 1 mps 725 mmHg 91%
    08:00 +15°C° 0 mm 1 mps 725 mmHg 84%
    09:00 +18°C° 0 mm 1 mps 726 mmHg 77%
    10:00 +19°C° 0 mm 1 mps 726 mmHg 70%
    11:00 +20°C° 0 mm 1 mps 726 mmHg 67%
    12:00 +21°C° 0 mm 1 mps 725 mmHg 64%
    13:00 +22°C° 0 mm 1 mps 725 mmHg 61%
    14:00 +21°C° 0 mm 1 mps 725 mmHg 65%
    15:00 +21°C° 0 mm 1 mps 724 mmHg 68%
    16:00 +20°C° 0 mm 1 mps 724 mmHg 71%
    17:00 +19°C° 0 mm 1 mps 724 mmHg 76%
    18:00 +16°C° 0 mm 1 mps 724 mmHg 80%
    19:00 +15°C° 0 mm 1 mps 724 mmHg 85%
    20:00 +15°C° 0 mm 1 mps 724 mmHg 85%
    21:00 +14°C° 0 mm 1 mps 724 mmHg 86%
    22:00 +14°C° 0 mm 1 mps 724 mmHg 86%
    23:00 +14°C° 0 mm 1 mps 724 mmHg 87%
    Show more